CAPE
795 288 444 546 256 112 1 0 0 0 0 0 0 0 0 0 0 0 0 0 0 0 2 4 4 0 5 3 12 4 12 8 20 32 19 31 32 22 41 13 15 17 16 17 20 24 24 21 19
73 163 172 166 5 0 0 0 0 0 0 0 0 0 0 0 0 0 0 0 0 0 0 0 8 4 4 6 5 5 7 2 20 16 26 28 36 15 9 13 14 13 15 14 15 14 22 17 9
149 0 142 1 0 0 0 0 0 0 0 0 0 0 0 0 0 0 0 0 0 0 0 0 3 2 3 12 10 7 10 4 12 7 22 18 15 20 15 12 12 9 8 13 13 13 14 9 1
90 111 0 0 0 0 0 0 0 0 0 0 0 0 0 0 0 0 0 0 0 0 0 0 0 8 0 10 6 7 5 2 9 9 10 8 15 8 12 8 8 10 6 11 9 7 7 7 1
0 9 0 0 0 0 0 0 0 0 0 0 0 0 0 0 0 0 0 0 0 0 0 0 2 2 4 1 2 3 0 0 2 8 10 9 12 14 11 10 7 6 7 6 7 7 5 2 0
31 0 0 0 0 0 0 0 0 0 0 0 0 0 0 0 0 0 0 0 0 0 0 0 0 2 3 3 0 0 0 0 0 4 3 0 0 0 5 3 3 6 6 2 0 2 2 0 0
1 0 0 0 0 0 0 0 0 0 0 0 0 0 0 0 0 0 0 0 0 0 0 0 0 0 0 4 0 0 0 0 0 0 0 0 0 0 0 0 2 5 7 1 3 0 0 0 0
0 0 0 0 0 0 0 0 0 0 0 0 0 0 0 0 0 0 0 0 0 0 0 0 0 0 0 2 0 0 0 0 0 0 0 0 0 0 0 0 0 0 2 2 2 0 0 0 0
0 0 0 0 0 0 0 0 0 0 0 0 0 0 0 0 0 0 0 0 0 0 0 0 0 0 0 0 0 0 0 0 0 0 0 0 0 0 0 0 0 0 0 0 0 0 0 0 0
0 0 0 0 0 0 0 0 0 0 0 0 0 0 0 0 0 0 0 0 0 0 0 0 0 0 0 0 0 0 0 0 0 0 0 0 0 0 0 0 0 0 0 0 0 0 0 0 0
0 0 0 0 0 0 0 0 0 0 0 0 0 0 0 0 0 0 0 0 0 0 0 0 0 0 0 0 0 0 0 0 0 0 0 0 0 0 0 0 0 0 0 0 0 0 0 0 0
0 0 0 0 0 0 0 0 0 0 0 0 0 0 0 0 0 0 0 0 0 0 0 0 0 0 0 0 0 0 0 0 0 0 0 0 0 0 0 0 0 0 0 0 0 0 0 0 0
0 0 0 0 0 0 0 0 0 0 0 0 0 0 0 0 0 0 0 0 0 0 0 0 0 0 0 0 0 0 0 0 0 0 0 0 0 0 0 0 0 0 0 0 0 0 0 0 0
0 0 0 0 0 0 0 0 0 0 0 0 0 0 0 0 0 0 0 0 0 0 0 0 0 0 0 0 0 0 0 0 0 0 0 0 0 0 0 0 0 0 0 0 0 0 0 0 0
0 0 0 0 0 0 0 0 0 0 0 0 0 0 0 0 0 0 0 0 0 0 0 0 0 0 0 0 0 0 0 0 0 0 0 0 0 0 0 0 0 0 0 0 0 0 0 0 0
0 0 0 0 0 0 0 0 0 0 0 0 0 0 0 0 0 0 0 0 0 0 0 0 0 0 0 0 0 0 0 0 0 0 0 0 0 0 0 0 0 0 0 0 0 0 0 0 0
0 0 0 0 0 0 0 0 0 0 0 0 0 0 0 0 0 0 0 0 0 0 0 0 0 0 0 0 0 0 0 0 0 0 0 0 0 0 0 0 0 0 0 0 0 0 0 0 0
0 0 0 0 0 0 0 0 0 0 0 0 0 0 0 0 0 0 0 0 0 0 0 0 0 0 0 0 0 0 0 0 0 0 0 0 0 0 0 0 0 0 0 0 0 0 0 0 0
0 0 0 0 0 0 0 0 0 0 0 0 0 0 0 0 0 0 0 0 0 0 0 0 0 0 0 0 0 0 0 0 0 0 0 0 0 0 0 0 0 0 0 0 0 0 0 0 0
0 0 0 0 0 0 0 0 0 0 0 0 0 0 0 0 0 0 0 0 0 0 0 0 0 0 0 0 0 0 0 0 0 0 0 0 0 0 0 0 0 0 0 0 0 0 0 0 0
0 0 0 0 0 0 0 0 0 0 0 0 0 0 0 0 0 0 0 0 0 0 0 0 0 0 0 0 0 0 0 0 0 0 0 0 0 0 0 0 0 0 0 0 0 0 0 0 0
0 0 0 0 0 0 0 0 0 0 0 0 0 0 0 0 0 0 0 0 0 0 0 0 0 0 0 0 0 0 0 0 0 0 0 0 0 0 0 0 0 0 0 0 0 0 0 0 0
0 0 0 0 0 0 0 0 0 0 0 0 0 0 0 0 0 0 0 0 0 0 0 0 0 0 0 0 0 0 0 0 0 0 0 0 0 0 0 0 0 0 0 0 0 0 0 0 0
0 0 0 0 0 0 0 0 0 0 0 0 0 0 0 0 0 0 0 0 0 0 0 0 0 0 0 0 0 0 0 0 0 0 0 0 0 0 0 0 0 0 0 0 0 0 0 0 0
0 0 0 0 0 0 0 0 0 0 0 0 0 0 0 0 0 0 0 0 0 0 0 0 0 0 0 0 0 0 0 0 0 0 0 0 0 0 0 0 0 0 0 0 0 0 0 0 0
0 0 0 0 0 0 0 0 0 0 0 0 0 0 0 0 0 0 0 0 0 0 0 0 0 0 0 0 0 0 0 0 0 0 0 0 0 0 0 0 0 0 0 0 0 0 0 0 0
0 0 0 0 0 0 0 0 0 0 0 0 0 0 0 0 0 0 0 0 0 0 0 0 0 0 0 0 0 0 0 0 0 0 0 0 0 0 0 0 0 0 0 0 0 0 0 0 0
0 0 0 0 0 0 0 0 0 0 0 0 0 0 0 0 0 0 0 0 0 0 0 0 0 0 0 0 0 0 0 0 0 0 0 0 0 0 0 0 0 0 0 0 0 0 0 0 0
0 0 0 0 0 0 0 0 0 0 0 0 0 0 0 0 0 0 0 0 0 0 0 0 0 0 0 0 0 0 0 0 0 0 0 0 0 0 0 0 0 0 0 0 0 0 0 0 0
0 0 0 0 0 0 0 0 0 0 0 0 0 0 0 0 0 0 0 0 0 0 0 0 0 0 0 0 0 0 0 0 0 0 0 0 0 0 0 0 0 0 0 0 0 0 0 0 0
CIN
-200 -232 -198 -85 -26 -93 -94 0 0 0 0 0 0 0 0 0 0 0 0 0 0 0 0 0 -1 0 -1 0 0 0 0 0 -1 0 0 0 0 0 0 0 0 0 0 0 0 0 0 0 0
-345 -240 -178 -92 -90 0 0 0 0 0 0 0 0 0 0 0 0 0 0 0 0 0 0 0 -1 0 0 -1 0 0 0 0 0 -1 0 0 0 0 0 0 0 0 0 0 0 0 0 0 0
-251 0 -70 -14 0 0 0 0 0 0 0 0 0 0 0 0 0 0 0 0 0 0 0 0 -1 0 0 0 0 0 0 0 -1 0 0 0 -1 0 0 0 0 0 0 0 0 0 0 0 0
-170 -114 0 -2 0 0 0 0 0 0 0 0 0 0 0 0 0 0 0 0 0 0 0 0 0 0 0 0 0 0 0 0 0 0 -1 -1 0 0 0 0 0 0 0 0 0 0 0 0 0
-7 -153 0 0 0 0 0 0 0 0 0 0 0 0 0 0 0 0 0 0 0 0 0 0 0 0 -1 0 0 0 0 0 0 0 0 0 0 0 0 0 0 0 0 0 0 0 0 0 0
-66 0 0 0 0 0 0 0 0 0 0 0 0 0 0 0 0 0 0 0 0 0 0 0 0 0 0 0 -1 0 0 0 0 0 0 0 0 0 0 0 0 0 0 0 0 0 0 0 0
-12 0 0 0 0 0 0 0 0 0 0 0 0 0 0 0 0 0 0 0 0 0 0 0 0 0 0 0 0 0 0 0 0 0 0 0 0 0 0 0 0 0 0 0 0 0 0 0 0
0 0 0 0 0 0 0 0 0 0 0 0 0 0 0 0 0 0 0 0 0 0 0 0 0 0 0 0 0 0 0 0 0 0 0 0 0 0 0 0 0 0 0 0 0 0 0 0 0
0 0 0 0 0 0 0 0 0 0 0 0 0 0 0 0 0 0 0 0 0 0 0 0 0 0 0 0 0 0 0 0 0 0 0 0 0 0 0 0 0 0 0 0 0 0 0 0 0
0 0 0 0 0 0 0 0 0 0 0 0 0 0 0 0 0 0 0 0 0 0 0 0 0 0 0 0 0 0 0 0 0 0 0 0 0 0 0 0 0 0 0 0 0 0 0 0 0
0 0 0 0 0 0 0 0 0 0 0 0 0 0 0 0 0 0 0 0 0 0 0 0 0 0 0 0 0 0 0 0 0 0 0 0 0 0 0 0 0 0 0 0 0 0 0 0 0
0 0 0 0 0 0 0 0 0 0 0 0 0 0 0 0 0 0 0 0 0 0 0 0 0 0 0 0 0 0 0 0 0 0 0 0 0 0 0 0 0 0 0 0 0 0 0 0 0
0 0 0 0 0 0 0 0 0 0 0 0 0 0 0 0 0 0 0 0 0 0 0 0 0 0 0 0 0 0 0 0 0 0 0 0 0 0 0 0 0 0 0 0 0 0 0 0 0
0 0 0 0 0 0 0 0 0 0 0 0 0 0 0 0 0 0 0 0 0 0 0 0 0 0 0 0 0 0 0 0 0 0 0 0 0 0 0 0 0 0 0 0 0 0 0 0 0
0 0 0 0 0 0 0 0 0 0 0 0 0 0 0 0 0 0 0 0 0 0 0 0 0 0 0 0 0 0 0 0 0 0 0 0 0 0 0 0 0 0 0 0 0 0 0 0 0
0 0 0 0 0 0 0 0 0 0 0 0 0 0 0 0 0 0 0 0 0 0 0 0 0 0 0 0 0 0 0 0 0 0 0 0 0 0 0 0 0 0 0 0 0 0 0 0 0
0 0 0 0 0 0 0 0 0 0 0 0 0 0 0 0 0 0 0 0 0 0 0 0 0 0 0 0 0 0 0 0 0 0 0 0 0 0 0 0 0 0 0 0 0 0 0 0 0
0 0 0 0 0 0 0 0 0 0 0 0 0 0 0 0 0 0 0 0 0 0 0 0 0 0 0 0 0 0 0 0 0 0 0 0 0 0 0 0 0 0 0 0 0 0 0 0 0
0 0 0 0 0 0 0 0 0 0 0 0 0 0 0 0 0 0 0 0 0 0 0 0 0 0 0 0 0 0 0 0 0 0 0 0 0 0 0 0 0 0 0 0 0 0 0 0 0
0 0 0 0 0 0 0 0 0 0 0 0 0 0 0 0 0 0 0 0 0 0 0 0 0 0 0 0 0 0 0 0 0 0 0 0 0 0 0 0 0 0 0 0 0 0 0 0 0
0 0 0 0 0 0 0 0 0 0 0 0 0 0 0 0 0 0 0 0 0 0 0 0 0 0 0 0 0 0 0 0 0 0 0 0 0 0 0 0 0 0 0 0 0 0 0 0 0
0 0 0 0 0 0 0 0 0 0 0 0 0 0 0 0 0 0 0 0 0 0 0 0 0 0 0 0 0 0 0 0 0 0 0 0 0 0 0 0 0 0 0 0 0 0 0 0 0
0 0 0 0 0 0 0 0 0 0 0 0 0 0 0 0 0 0 0 0 0 0 0 0 0 0 0 0 0 0 0 0 0 0 0 0 0 0 0 0 0 0 0 0 0 0 0 0 0
0 0 0 0 0 0 0 0 0 0 0 0 0 0 0 0 0 0 0 0 0 0 0 0 0 0 0 0 0 0 0 0 0 0 0 0 0 0 0 0 0 0 0 0 0 0 0 0 0
0 0 0 0 0 0 0 0 0 0 0 0 0 0 0 0 0 0 0 0 0 0 0 0 0 0 0 0 0 0 0 0 0 0 0 0 0 0 0 0 0 0 0 0 0 0 0 0 0
0 0 0 0 0 0 0 0 0 0 0 0 0 0 0 0 0 0 0 0 0 0 0 0 0 0 0 0 0 0 0 0 0 0 0 0 0 0 0 0 0 0 0 0 0 0 0 0 0
0 0 0 0 0 0 0 0 0 0 0 0 0 0 0 0 0 0 0 0 0 0 0 0 0 0 0 0 0 0 0 0 0 0 0 0 0 0 0 0 0 0 0 0 0 0 0 0 0
0 0 0 0 0 0 0 0 0 0 0 0 0 0 0 0 0 0 0 0 0 0 0 0 0 0 0 0 0 0 0 0 0 0 0 0 0 0 0 0 0 0 0 0 0 0 0 0 0
0 0 0 0 0 0 0 0 0 0 0 0 0 0 0 0 0 0 0 0 0 0 0 0 0 0 0 0 0 0 0 0 0 0 0 0 0 0 0 0 0 0 0 0 0 0 0 0 0
0 0 0 0 0 0 0 0 0 0 0 0 0 0 0 0 0 0 0 0 0 0 0 0 0 0 0 0 0 0 0 0 0 0 0 0 0 0 0 0 0 0 0 0 0 0 0 0 0
Wind_Speed
8 5 3 4 4 3 4 4 1 3 2 3 2 4 5 5 6 6 5 5 9 10 8 10 6 6 8 5 8 8 6 7 9 10 11 12 13 12 13 12 13 14 14 15 15 15 15 16 16
5 3 3 1 4 3 5 3 3 4 6 5 2 1 2 4 3 7 9 7 10 9 7 7 9 7 8 4 7 8 6 7 8 10 10 11 11 12 11 13 13 13 14 14 14 13 15 16 15
4 3 3 1 1 2 3 3 6 6 6 2 2 2 2 4 4 9 5 12 9 8 7 8 9 6 8 7 7 7 7 6 6 8 10 11 9 10 10 12 11 11 12 11 12 13 14 15 14
3 4 3 4 1 3 3 6 6 8 4 2 0 3 3 3 4 5 10 11 10 8 7 9 7 7 6 8 7 6 7 6 6 8 8 9 10 9 11 11 10 10 10 10 12 12 12 13 13
1 3 3 2 3 3 4 5 6 4 4 4 3 3 1 5 4 9 11 10 9 8 6 7 6 6 4 6 6 6 6 6 5 8 7 9 9 9 9 9 9 9 10 10 10 11 11 11 12
3 3 6 6 4 4 4 6 5 2 3 5 4 2 4 8 8 9 11 11 9 8 6 6 7 6 4 6 4 5 5 5 4 6 6 7 8 7 7 8 8 7 8 9 10 10 10 10 11
3 5 2 1 5 6 4 6 5 2 3 2 1 1 5 9 8 10 12 10 8 7 7 6 5 7 5 5 4 4 4 4 3 3 3 6 7 7 6 7 7 8 8 7 9 8 9 9 10
0 2 5 3 6 4 6 7 1 5 2 3 1 1 5 8 12 12 11 10 9 8 7 6 6 6 5 7 6 4 3 2 2 2 3 6 2 3 4 3 8 7 8 8 8 8 8 9 8
1 4 5 5 5 5 6 8 4 1 3 3 5 3 6 10 13 13 12 11 9 8 8 7 7 7 5 5 6 5 4 1 2 4 3 5 2 1 2 5 6 7 7 7 6 6 5 4 5
3 4 3 2 2 2 8 6 5 5 5 7 8 6 7 13 15 15 14 14 13 12 11 8 8 7 6 5 5 4 3 3 3 3 3 3 2 2 5 1 2 2 4 3 3 3 1 5 2
1 1 4 4 1 1 4 5 4 6 7 8 6 8 11 13 14 15 14 13 14 12 9 10 9 8 8 6 4 3 3 3 3 5 4 3 3 3 2 2 1 1 0 1 2 2 1 3 3
3 3 1 3 2 2 3 2 5 10 7 1 2 3 13 15 15 16 15 14 13 13 12 11 11 9 9 5 5 5 4 4 4 4 5 4 3 3 3 2 2 2 2 3 3 2 3 3 3
1 3 1 2 2 1 1 6 8 10 8 6 4 7 12 13 14 13 12 11 12 13 13 13 12 10 9 9 6 5 5 5 4 4 5 4 4 4 3 3 3 3 3 3 3 4 4 4 5
2 2 2 2 2 2 4 3 3 2 1 9 10 11 10 13 14 12 13 14 14 13 13 13 13 12 10 9 9 6 6 5 5 5 5 7 5 5 4 4 4 4 3 3 4 4 4 5 5
2 4 4 2 1 1 3 7 9 4 4 5 9 11 10 11 11 15 14 15 14 13 13 13 13 12 12 11 9 7 7 6 6 6 7 8 7 6 6 5 4 4 4 5 5 5 5 5 5
3 4 4 3 1 2 4 2 5 4 6 7 8 10 11 13 14 13 13 13 13 12 13 13 11 12 13 11 9 8 7 7 7 7 6 9 9 8 7 5 5 4 4 4 5 5 5 5 5
3 0 2 2 0 2 5 5 4 5 6 9 9 10 11 11 12 13 14 13 13 13 13 13 14 14 13 12 9 9 9 8 8 7 7 9 10 10 8 7 6 6 5 5 5 5 6 6 6
0 2 2 3 2 4 8 15 11 9 11 13 12 12 11 12 14 12 14 13 13 12 12 12 12 14 12 9 8 7 8 8 8 8 8 11 9 11 9 8 8 7 6 7 6 7 6 7 7
1 2 5 2 1 5 5 13 13 7 7 9 10 11 12 13 9 8 10 13 13 13 13 14 14 14 10 9 8 8 9 8 9 9 13 12 11 11 11 9 9 9 9 9 8 8 8 7 6
1 4 4 3 2 5 7 16 11 6 5 5 5 10 12 11 11 11 12 12 14 14 15 15 15 13 12 9 8 7 5 7 8 8 11 13 13 13 11 12 10 11 8 10 10 10 8 7 6
3 5 2 4 7 4 8 8 6 5 5 5 7 6 6 10 12 12 13 14 12 14 15 15 15 14 14 13 9 6 5 6 7 9 9 11 13 13 14 14 12 11 10 9 11 11 12 9 6
5 2 1 3 5 3 2 1 7 7 5 6 6 7 6 8 9 9 11 13 14 14 12 13 13 14 13 14 11 14 10 10 8 8 8 8 11 13 14 14 14 13 10 13 12 11 11 11 10
3 1 1 2 5 5 6 5 6 4 8 8 7 5 4 4 6 8 10 10 12 10 11 11 12 13 13 13 14 11 13 10 8 8 10 10 10 12 13 14 14 14 12 14 14 13 13 11 11
6 2 2 3 4 6 4 4 6 9 11 10 7 5 5 4 4 5 5 7 8 8 9 9 12 13 13 13 14 16 15 12 10 10 9 8 8 9 13 14 14 14 14 14 13 14 15 13 13
4 4 3 5 5 2 2 5 7 7 6 9 10 8 6 5 6 6 8 9 9 10 9 9 11 12 12 13 14 15 15 14 15 13 10 10 9 9 10 12 13 13 14 14 13 13 15 15 14
8 4 4 4 3 2 2 7 2 4 5 5 5 6 5 6 6 7 7 8 8 9 9 10 10 10 11 12 13 12 13 9 10 12 10 10 9 9 10 10 12 14 14 13 13 12 12 14 13
7 8 3 0 1 4 4 5 9 7 9 9 9 8 9 9 8 8 8 7 7 8 9 9 9 9 10 11 9 10 11 13 12 12 11 9 11 10 11 11 11 11 12 13 13 11 13 13 13
5 4 4 3 4 5 5 6 5 15 18 15 14 13 11 9 8 7 7 7 6 6 6 7 8 7 7 7 8 8 9 10 11 10 12 12 11 11 11 11 11 11 11 12 13 12 12 13 12
6 6 4 4 3 3 3 4 1 16 20 20 18 15 13 11 9 8 7 6 6 5 6 6 6 6 6 6 6 6 7 8 9 9 10 10 10 10 11 11 10 11 11 12 12 13 13 14 14
4 7 10 5 6 2 3 6 2 3 13 15 16 15 12 10 10 8 8 7 7 7 7 6 6 5 5 4 4 5 5 6 7 8 9 9 10 10 10 10 10 11 11 11 13 14 13 15 16
Wind_Direction
292 303 259 229 234 249 85 89 44 111 138 58 50 305 8 9 349 28 130 99 141 138 137 128 136 112 102 70 79 75 58 67 48 58 56 51 49 47 48 48 51 45 46 44 43 37 46 53 44
311 292 240 245 275 269 92 121 114 63 96 115 123 220 224 73 60 103 145 140 153 139 142 129 114 118 104 86 84 87 55 72 45 61 59 60 55 54 46 48 49 44 40 45 44 41 53 46 41
285 313 272 325 275 1 59 130 111 119 129 186 151 318 26 74 111 143 95 148 150 144 140 116 122 126 116 94 95 92 73 77 40 62 66 64 61 65 51 52 47 52 40 35 52 48 47 53 43
300 198 158 265 46 92 45 129 121 147 185 208 296 143 155 65 129 148 142 150 155 146 155 126 141 131 129 100 94 92 79 75 34 66 55 65 54 57 53 52 48 38 59 33 38 51 46 54 44
259 237 217 207 127 111 119 117 151 150 122 149 210 99 125 151 119 138 153 160 158 156 155 149 150 131 144 105 98 92 85 76 49 77 52 58 47 52 50 52 43 40 44 41 41 48 52 49 47
210 277 232 226 145 124 142 155 158 173 137 138 212 180 94 120 160 166 165 164 161 154 159 152 155 152 149 118 105 91 80 76 68 69 69 67 60 50 54 43 30 39 46 50 42 38 51 48 46
257 233 252 209 149 170 157 158 209 167 169 175 15 255 98 166 155 159 164 162 162 158 172 171 175 161 168 130 117 112 90 73 82 86 88 67 45 36 53 27 34 30 35 39 40 40 33 52 46
225 240 174 193 183 133 139 170 263 220 121 86 250 154 119 141 150 158 159 165 171 173 187 186 185 177 176 161 145 141 116 102 119 124 84 66 71 33 54 317 29 37 24 25 40 38 36 39 46
263 215 195 160 181 121 146 196 153 72 182 192 182 268 85 135 151 160 171 177 182 189 198 195 198 197 193 192 134 176 169 174 146 147 102 220 291 346 247 46 13 13 25 25 32 42 48 36 57
265 237 127 99 132 143 173 215 158 207 202 216 212 164 130 155 170 177 185 189 193 195 198 201 204 201 202 204 205 206 184 231 227 244 294 304 320 13 328 358 21 19 28 29 27 32 328 251 351
61 355 132 145 132 206 171 204 194 232 240 255 232 192 172 177 186 194 198 200 196 198 200 201 199 206 206 210 207 212 220 229 232 242 260 281 277 260 271 288 220 297 86 298 240 211 311 343 340
176 86 71 128 122 168 195 136 222 233 264 79 218 174 173 188 195 201 203 203 195 196 203 203 205 201 211 215 210 217 220 220 234 236 245 257 261 269 275 275 302 289 311 308 311 315 324 284 279
105 128 135 125 156 228 189 239 269 250 243 208 168 184 194 197 202 204 206 206 203 205 205 206 203 212 209 213 217 220 227 225 239 232 229 245 249 264 268 264 269 279 291 297 308 309 313 303 312
80 131 141 186 175 181 260 240 251 147 135 219 213 215 207 206 202 196 204 207 208 210 208 206 208 208 212 218 218 227 230 233 238 239 240 232 246 254 253 262 260 262 267 282 291 312 304 299 294
135 204 192 187 174 189 297 231 231 225 211 229 215 219 211 212 206 211 205 211 208 210 209 209 209 210 214 220 225 224 231 236 238 240 236 239 240 252 250 260 256 262 260 266 269 273 280 280 278
216 231 217 107 191 128 263 129 184 185 220 233 224 216 215 216 216 217 216 213 209 210 207 206 206 213 213 221 221 227 228 230 237 240 240 238 238 241 250 253 254 250 251 259 267 272 276 271 275
185 233 249 175 130 291 246 287 160 191 223 251 238 223 219 222 217 218 214 214 211 210 207 208 206 214 215 219 226 230 236 235 238 242 240 239 237 237 239 245 248 242 242 242 253 258 258 275 273
152 245 214 282 105 247 263 267 269 248 254 256 249 232 222 223 225 210 209 211 212 210 213 212 209 215 215 218 226 231 236 237 239 238 240 238 236 235 238 243 245 242 238 241 237 250 251 264 278
87 289 291 293 71 285 265 282 287 293 237 248 240 226 220 223 213 204 203 204 207 210 210 211 212 211 207 210 218 231 235 233 236 233 238 234 235 231 231 239 243 234 238 242 241 245 251 251 251
225 279 274 266 260 284 308 296 288 244 245 250 236 216 220 222 209 207 200 201 205 207 210 212 214 212 208 214 217 233 236 240 245 237 236 232 231 230 229 232 237 236 236 238 238 234 244 247 244
221 265 285 312 320 251 295 258 209 187 241 234 234 237 230 225 221 208 200 202 201 210 207 212 212 211 209 212 215 226 241 248 242 237 239 234 229 230 228 231 233 236 234 239 233 230 228 244 225
264 169 186 310 304 289 274 278 203 196 235 220 204 207 219 213 214 220 209 203 203 210 208 210 211 211 212 206 214 219 229 243 240 244 239 236 229 229 228 231 232 235 231 234 236 230 229 228 244
43 143 329 284 270 286 184 254 127 175 215 202 196 189 192 200 207 200 202 205 207 199 203 207 209 210 209 207 214 221 233 246 251 252 249 245 241 235 235 231 232 233 232 235 235 230 227 231 236
135 173 211 225 254 239 116 263 188 185 207 182 186 183 169 169 176 193 184 189 195 185 197 202 207 212 208 209 213 224 235 240 248 244 250 250 247 239 234 236 235 238 235 235 235 235 234 231 232
203 217 214 205 204 290 109 236 278 188 180 179 175 168 165 167 177 176 187 191 190 193 197 199 205 213 208 212 218 223 234 239 246 252 252 254 249 244 242 234 235 236 238 238 237 236 233 233 234
190 263 280 265 243 47 149 231 199 195 167 166 161 157 174 187 181 185 193 194 194 197 196 201 205 215 211 215 225 227 234 239 245 249 254 256 254 255 253 240 238 244 241 239 238 239 238 238 237
150 217 17 273 136 267 197 239 248 200 201 199 198 196 193 187 186 192 190 194 187 194 199 201 205 215 217 222 228 232 234 236 246 252 253 256 260 261 256 250 245 241 243 240 236 239 240 237 242
264 122 175 206 226 243 200 259 226 189 198 195 197 202 194 193 191 195 196 190 192 195 190 193 206 213 214 219 226 236 241 245 251 255 255 251 255 255 256 252 245 244 240 238 237 241 243 244 242
166 200 217 299 254 274 295 231 238 200 195 191 196 196 193 193 191 187 183 179 182 186 186 190 194 201 204 211 226 235 245 247 250 253 259 258 260 257 252 250 249 245 240 238 238 239 242 240 242
264 232 203 232 181 243 315 279 149 220 201 196 193 190 191 195 187 182 180 179 184 182 174 184 184 190 196 198 218 233 249 250 253 257 260 259 258 258 260 259 253 247 243 241 240 242 239 241 241